Location: Newark
(42.4678°N, 122.8017°W)
Time: 15:15:17
(UTC+00:00)

Envisat - Visible Passes

Search period start: 29 September 2020 00:00
Search period end: 09 October 2020 00:00
Orbit: 764 x 766 km, 98.1° (Epoch: 29 September)

Date Brightness Start Highest point End Pass type
(mag) Time Alt. Az. Time Alt. Az. Time Alt. Az.
29 Sep 5.4 02:15:42 10° SSW 02:20:04 29° W 02:24:28 10° NW visible
29 Sep 6.6 12:47:15 10° ENE 12:48:24 11° E 12:49:33 10° E visible
01 Oct 6.2 02:42:32 10° SW 02:45:44 17° W 02:48:58 10° NW visible
01 Oct 6.0 13:10:31 10° NE 13:14:09 19° E 13:17:46 10° SE visible
03 Oct 5.1 13:35:12 10° NNE 13:39:48 33° E 13:44:22 10° SSE visible
04 Oct 6.0 02:30:27 10° SW 02:34:16 21° W 02:38:06 10° NW visible
04 Oct 6.2 12:59:43 10° NE 13:02:40 15° E 13:05:36 10° SE visible
06 Oct 6.5 02:58:09 10° WSW 03:00:00 12° W 03:01:50 10° WNW visible
06 Oct 5.5 13:24:05 10° NE 13:28:21 27° E 13:32:36 10° SSE visible
07 Oct 5.5 02:18:34 10° SSW 02:22:48 27° W 02:27:04 10° NW visible
07 Oct 6.5 12:49:19 10° ENE 12:51:10 12° E 12:53:01 10° ESE visible
